Regional Weather Roundup
Issued by NWS Portland, ME

Home | Current Version | Previous Version | Text Only | Print | Product List | Glossary On
Versions: 1 2 3 4 5 6 7 8 9 10 11 12 13 14 15 16 17 18 19 20 21 22 23 24 25 26 27 28 29 30 31 32 33 34 35 36 37 38 39 40 41 42 43 44 45 46 47 48 49 50
000
ASUS41 KGYX 300210
RWRGYX
WEATHER ROUNDUP FOR MAINE AND NEW HAMPSHIRE
NATIONAL WEATHER SERVICE GRAY ME
1000 PM EDT SAT APR 29 2017

MEZ002-005-006-010-012-015-018-020-021-024-026-027-029-300300-
MAINE

CITY           SKY/WX    TMP DP  RH WIND       PRES   REMARKS
PORTLAND       CLOUDY    64  41  42 N5        29.93R
SANFORD        MOCLDY    66  46  48 W9        29.94R
WISCASSET      CLOUDY    66  40  38 VRB3      29.94R
ROCKLAND       PTCLDY    64  37  36 NW8       29.91R
FRYEBURG       CLOUDY    61  35  37 W15G33    29.97R
LEWISTONAUBURN CLOUDY    63  36  36 NW21G30   29.95R
AUGUSTA        CLEAR     62  30  29 NW12G29   29.94R
BANGOR         PTCLDY    58  34  40 N21G32    29.93R
GREENVILLE       N/A     41  26  55 NW17G30   29.95R
MILLINOCKET    CLEAR     49  32  52 N8        29.96R
HOULTON        CLEAR     43  27  53 N13G22    29.94R
PRESQUE ISLE   CLEAR     41  26  55 NW20G28   29.98R
FRENCHVILLE    CLOUDY    37  23  56 NW22G30   29.96R
CARIBOU        CLEAR     40  26  57 NW16G29   29.96R
$$

NHZ002-005-008-009-011-012-014-300300-
NEW HAMPSHIRE

CITY           SKY/WX    TMP DP  RH WIND       PRES   REMARKS
PORTSMOUTH     MOCLDY    66  49  53 W10       29.94R
ROCHESTER      PTCLDY    67  41  38 VRB3      29.94R
NASHUA         CLEAR     66  45  46 W7          N/A
MANCHESTER     PTCLDY    66  43  43 W6        29.96R
CONCORD        CLEAR     66  41  40 W14G22    29.97R
LACONIA        PTCLDY    63  39  41 NW15G25   30.00R
PLYMOUTH       FAIR      60  32  34 NW12G24   30.00R
BERLIN         CLEAR     49  28  44 NW15G26   30.04R
WHITEFIELD     CLEAR     52  30  43 N10G23    30.05R
JAFFREY        CLEAR     61  44  53 W6        30.02R
KEENE          CLEAR     62  42  47 SW6       30.03R
LEBANON        PTCLDY    60  34  37 N12G21    30.04R
MT WASHINGTON  MOCLDY    30  27  86 NW79G87     N/A  WCI   8
$$

VTZ005-007-008-300300-
VERMONT

CITY           SKY/WX    TMP DP  RH WIND       PRES   REMARKS
ST JOHNSBURY     N/A     51  31  46 MISG      30.07R
MONTPELIER     PTCLDY    51  31  46 NW13G21   30.11R
BURLINGTON     PTCLDY    52  29  41 N22G32    30.16R
$$

MAZ007-012-024-CTZ003-RIZ002-NYZ038-NYZ072-300300-
SOUTHERN NEW ENGLAND AND NY

CITY           SKY/WX    TMP DP  RH WIND       PRES   REMARKS
BOSTON         MOCLDY    70  46  42 W14       29.98R
WORCESTER      PTCLDY    63  39  41 W14       30.02S
NANTUCKET      CLEAR     56  52  86 W8        30.00R
PROVIDENCE     CLOUDY    71  50  47 W18G29    30.04R
HARTFORD       CLOUDY    65  46  50 W13       30.07R
ALBANY         PTCLDY    56  35  45 W16G25    30.14R
NEW YORK CITY  MOCLDY    76  56  49 NW14G23   30.07R
$$

ANZ081-ANZ082-ANZ150-NHZ014-MEZ023>029-300300-
COASTAL MARINE OBSERVATIONS

STATION/POSITION TIME  TEMP    WIND        PRES    WAVE
                       AIR SEA DIR/SP/G            HT/PER
                 (UTC) (F)     (DEG/KT/KT) (MB)    (FT/S)
MOUNT DESERT ROC 0100   56                 1009.8R
MATINICUS ROCK   0100   59     330/ 19/ 22 1009.9R
ISLE OF SHOALS   0100   69     260/ 18/ 18 1012.4R
JEFFREYS LEDGE   0106      45                N/A     3/ 7
CASHES LEDGE BUO 0050   53 45              1010.6    4/ 8
GEORGES BANK BUO 0050   47 41              1012.2    5/ 8
$$

.............KEY..............
   WCI - WIND CHILL
   TC  - TEMPERATURE IN CELSIUS
   VSB - VISIBILITY IN MILES
   HX  - HEAT INDEX
   FAIR- INDICATES FEW OR NO CLOUDS BELOW 12,000 FT, WITH NO
         SIGNIFICANT WEATHER AND/OR OBSTRUCTIONS TO VISIBILITY.





USA.gov is the U.S. government's official web portal to all federal, state and local government web resources and services.